Simultaneous Nadir Overpasses (SNOs) Predictions

Prediction of SNOs between GOES-15 and NPP Satellite Orbit:

Table of predicted SNOs for the next 14.0 days since TLE Epoch: 5/4/2024
Index Date Time (GOES-15) GOES-15 Lat,Lon NPP Lat,Lon Distance(km) Time Diff (sec)
1 05/05/2024 09:34:17 -0.07, 61.49 -0.97, 57.51 452.97 80
2 05/06/2024 09:18:12 -0.07, 61.50 0.03, 62.05 62.23 80
3 05/08/2024 21:18:34 0.06, 61.53 0.10, 61.31 24.63 80
4 05/09/2024 21:02:28 0.07, 61.55 -0.90, 65.84 490.24 80
5 05/11/2024 09:21:43 -0.05, 61.59 -0.29, 60.54 119.14 80
6 05/12/2024 09:05:38 -0.06, 61.61 0.72, 65.08 395.48 80
7 05/13/2024 21:24:44 0.04, 61.63 0.47, 59.82 207.26 80
8 05/14/2024 21:08:39 0.06, 61.65 -0.54, 64.35 307.56 80
9 05/16/2024 09:27:54 -0.04, 61.69 -0.63, 59.05 301.51 80
10 05/17/2024 09:11:49 -0.05, 61.71 0.38, 63.58 213.13 80
